Weather History for Mattoon, IL

Change the Weather History Date:

Wednesday, November 13, 2013

  Actual Average Record
Temperature  
Mean Temperature 29 °F 44 °F  
Max Temperature 39 °F 53 °F 78 °F (1955)
Min Temperature 19 °F 36 °F 7 °F (1986)
Degree Days  
Heating Degree Days 36 21  
Month to date heating degree days 280 235  
Since 1 July heating degree days 630 639  
Cooling Degree Days 0 0  
Month to date cooling degree days 0 0  
Year to date cooling degree days 1007 1057  
Moisture  
Dew Point 19 °F    
Average Humidity 66    
Maximum Humidity 91    
Minimum Humidity 40    
Precipitation  
Precipitation 0.00 in 0.12 in 1.69 in (1978)
Month to date precipitation 0.05 1.50  
Year to date precipitation 40.74 33.30  
Sea Level Pressure  
Sea Level Pressure 30.54 in    
Wind  
Wind Speed 8 mph (SSW)    
Max Wind Speed 16 mph    
Max Gust Speed 21 mph    
Visibility 10 miles    
Events      
T = Trace of Precipitation, MM = Missing Value Source: NWS Daily Summary

Daily Weather History Graph

Daily Weather History Graph

Search for Another Location

Airport:

Trip Planner

Search our weather history database for the weather conditions in past years. The results will help you decide how hot, cold, wet, or windy it might be!

Date:

Astronomy

Nov. 13, 2013 Rise Set
Actual Time 6:35 AM CST 4:39 PM CST
Civil Twilight 6:06 AM CST 5:07 PM CST
Nautical Twilight 5:34 AM CST 5:40 PM CST
Astronomical Twilight 5:02 AM CST 6:12 PM CST
Moon 2:25 PM CST (11/13) 2:28 AM CST (11/13)
Length of Visible Light 11h 01m
Length of Day
10h 04m
Waxing Gibbous, 85% of the Moon is Illuminated
Nov 13
Waxing Gibbous
Nov 17
Full
Nov 25
Last Quarter
Dec 2
New
Dec 9
First Quarter

Hourly Weather History & Observations

Time (CST) Temp. Windchill Dew Point Humidity Pressure Visibility Wind Dir Wind Speed Gust Speed Precip Events Conditions
12:53 AM 21.0 °F 14.6 °F 18.0 °F 88% 30.68 in 10.0 mi West 4.6 mph - N/A   Clear
1:53 AM 21.0 °F 16.2 °F 18.0 °F 88% 30.67 in 10.0 mi West 3.5 mph - N/A   Clear
2:53 AM 21.0 °F 16.2 °F 18.0 °F 88% 30.67 in 10.0 mi West 3.5 mph - N/A   Clear
3:53 AM 19.9 °F 13.4 °F 17.1 °F 89% 30.67 in 10.0 mi WSW 4.6 mph - N/A   Clear
4:53 AM 21.0 °F 14.6 °F 17.1 °F 85% 30.67 in 10.0 mi WSW 4.6 mph - N/A   Clear
5:53 AM 21.0 °F 13.4 °F 16.0 °F 81% 30.67 in 10.0 mi WSW 5.8 mph - N/A   Clear
6:53 AM 19.9 °F 13.4 °F 18.0 °F 92% 30.68 in 10.0 mi SW 4.6 mph - N/A   Clear
7:53 AM 23.0 °F 17.0 °F 19.0 °F 85% 30.67 in 10.0 mi SSW 4.6 mph - N/A   Clear
8:53 AM 27.0 °F 18.0 °F 19.9 °F 75% 30.66 in 10.0 mi SSW 9.2 mph - N/A   Clear
9:53 AM 30.0 °F 21.7 °F 21.0 °F 69% 30.65 in 10.0 mi SSW 9.2 mph - N/A   Clear
10:53 AM 33.1 °F 24.9 °F 19.9 °F 59% 30.63 in 10.0 mi South 10.4 mph 16.1 mph N/A   Clear
11:53 AM 35.1 °F 26.9 °F 19.9 °F 54% 30.58 in 10.0 mi SSW 11.5 mph - N/A   Clear
12:53 PM 37.0 °F 29.3 °F 19.9 °F 50% 30.54 in 10.0 mi South 11.5 mph 18.4 mph N/A   Clear
1:53 PM 37.9 °F 30.0 °F 17.1 °F 43% 30.51 in 10.0 mi SSW 12.7 mph 20.7 mph N/A   Clear
2:53 PM 39.0 °F 32.3 °F 18.0 °F 43% 30.48 in 10.0 mi South 10.4 mph - N/A   Clear
3:53 PM 37.9 °F 31.5 °F 19.0 °F 47% 30.46 in 10.0 mi South 9.2 mph - N/A   Clear
4:53 PM 36.0 °F 29.0 °F 21.0 °F 55% 30.43 in 10.0 mi South 9.2 mph - N/A   Clear
5:53 PM 34.0 °F 27.2 °F 19.0 °F 54% 30.43 in 10.0 mi South 8.1 mph - N/A   Clear
6:53 PM 33.1 °F 25.5 °F 19.0 °F 56% 30.41 in 10.0 mi South 9.2 mph - N/A   Clear
7:53 PM 33.1 °F 26.1 °F 19.9 °F 59% 30.40 in 10.0 mi South 8.1 mph - N/A   Clear
8:53 PM 32.0 °F 23.6 °F 19.0 °F 59% 30.38 in 10.0 mi South 10.4 mph - N/A   Clear
9:53 PM 32.0 °F 23.0 °F 19.0 °F 59% 30.35 in 10.0 mi South 11.5 mph - N/A   Clear
10:53 PM 33.1 °F 24.4 °F 19.0 °F 56% 30.34 in 10.0 mi South 11.5 mph - N/A   Clear
11:53 PM 32.0 °F 22.5 °F 19.9 °F 61% 30.32 in 10.0 mi South 12.7 mph - N/A   Clear